Tracking 29892 objects as of 21-Nov-2024
HD Live streaming from Space Station
objects crossing your sky now

FALCON HEAVY R/B

Track FALCON HEAVY R/B now!


NORAD ID: 54221
Int'l Code: 2022-144C
Perigee: 36,172.9 km
Apogee: 36,649.9 km
Inclination: 4.6 °
Period: 1,467.8 minutes
Semi major axis: 42782 km
RCS: Unknown
Launch date: November 1, 2022
Source: United States (US)
Launch site: AIR FORCE EASTERN TEST RANGE (AFETR)

Note: This is a ROCKET BODY
Your satellite tracking list
Your tracking list is empty




NASA's NSSDC Master Catalog

Two Line Element Set (TLE):
1 54221U 22144C   24325.50515513 -.00000159  00000-0  00000-0 0  9994
2 54221   4.5628  66.7867 0055739 201.9747 157.5563  0.98108163  5935
Source of the keplerian elements: AFSPC